Stündliche Wetter Dabie

Heute, 28 Oktober, Mittwoch

Zeit Temperatur Niederschläge Wind Luftdruck Luftfeuchtigkeit
00:00 +10°C° 0 mm 2 m/S 742 mmHg 89%
01:00 +10°C° 0 mm 2 m/S 742 mmHg 91%
02:00 +10°C° 0 mm 2 m/S 742 mmHg 92%
03:00 +10°C° 0 mm 1 m/S 742 mmHg 93%
04:00 +10°C° 0 mm 1 m/S 742 mmHg 95%
05:00 +10°C° 0 mm 1 m/S 743 mmHg 95%
06:00 +10°C° 0 mm 1 m/S 743 mmHg 95%
07:00 +9°C° 0 mm 0 m/S 743 mmHg 94%
08:00 +12°C° 0 mm 1 m/S 743 mmHg 88%
09:00 +13°C° 0 mm 1 m/S 743 mmHg 82%
10:00 +15°C° 0 mm 1 m/S 743 mmHg 75%
11:00 +15°C° 0 mm 1 m/S 743 mmHg 71%
12:00 +16°C° 0 mm 1 m/S 743 mmHg 67%
13:00 +18°C° 0 mm 1 m/S 742 mmHg 63%
14:00 +16°C° 0 mm 1 m/S 742 mmHg 67%
15:00 +15°C° 0 mm 1 m/S 742 mmHg 71%
16:00 +15°C° 0 mm 1 m/S 742 mmHg 75%
17:00 +14°C° 0 mm 1 m/S 743 mmHg 78%
18:00 +13°C° 0 mm 1 m/S 743 mmHg 81%
19:00 +13°C° 0 mm 1 m/S 743 mmHg 83%
20:00 +12°C° 0 mm 1 m/S 743 mmHg 85%
21:00 +12°C° 0 mm 1 m/S 743 mmHg 86%
22:00 +12°C° 0 mm 1 m/S 744 mmHg 88%
23:00 +11°C° 0 mm 1 m/S 744 mmHg 89%

Morgen, 29 Oktober, Donnerstag

Zeit Temperatur Niederschläge Wind Luftdruck Luftfeuchtigkeit
00:00 +11°C° 0 mm 1 m/S 744 mmHg 90%
01:00 +9°C° 0 mm 2 m/S 744 mmHg 91%
02:00 +9°C° 0 mm 2 m/S 744 mmHg 92%
03:00 +9°C° 0 mm 2 m/S 744 mmHg 92%
04:00 +9°C° 0 mm 2 m/S 744 mmHg 92%
05:00 +10°C° 0 mm 1 m/S 744 mmHg 92%
06:00 +10°C° 0 mm 1 m/S 744 mmHg 91%
07:00 +10°C° 0 mm 1 m/S 744 mmHg 90%
08:00 +10°C° 0 mm 2 m/S 744 mmHg 82%
09:00 +13°C° 0 mm 2 m/S 744 mmHg 74%
10:00 +13°C° 0 mm 3 m/S 744 mmHg 65%
11:00 +14°C° 0 mm 3 m/S 744 mmHg 62%
12:00 +14°C° 0 mm 3 m/S 743 mmHg 58%
13:00 +16°C° 0 mm 3 m/S 743 mmHg 55%
14:00 +14°C° 0 mm 3 m/S 743 mmHg 59%
15:00 +13°C° 0 mm 3 m/S 743 mmHg 64%
16:00 +12°C° 0 mm 3 m/S 743 mmHg 68%
17:00 +12°C° 0.1 mm 3 m/S 743 mmHg 72%
18:00 +11°C° 0.1 mm 3 m/S 743 mmHg 75%
19:00 +11°C° 0.1 mm 4 m/S 743 mmHg 79%
20:00 +9°C° 0.1 mm 5 m/S 743 mmHg 78%
21:00 +9°C° 0.1 mm 6 m/S 744 mmHg 78%
22:00 +8°C° 0.1 mm 7 m/S 744 mmHg 77%
23:00 +8°C° 0 mm 6 m/S 744 mmHg 80%

übermorgen, 30 Oktober, Freitag

Zeit Temperatur Niederschläge Wind Luftdruck Luftfeuchtigkeit
00:00 +7°C° 0 mm 5 m/S 744 mmHg 83%
01:00 +6°C° 0 mm 5 m/S 745 mmHg 85%
02:00 +6°C° 0 mm 5 m/S 745 mmHg 86%
03:00 +5°C° 0 mm 5 m/S 746 mmHg 86%
04:00 +5°C° 0 mm 5 m/S 746 mmHg 86%
05:00 +5°C° 0 mm 4 m/S 746 mmHg 87%
06:00 +4°C° 0 mm 4 m/S 747 mmHg 88%
07:00 +4°C° 0 mm 3 m/S 747 mmHg 89%
08:00 +5°C° 0 mm 4 m/S 747 mmHg 82%
09:00 +7°C° 0 mm 4 m/S 747 mmHg 76%
10:00 +8°C° 0 mm 4 m/S 747 mmHg 69%
11:00 +10°C° 0 mm 4 m/S 747 mmHg 64%
12:00 +11°C° 0 mm 4 m/S 747 mmHg 60%
13:00 +11°C° 0 mm 3 m/S 746 mmHg 55%
14:00 +11°C° 0 mm 3 m/S 746 mmHg 59%
15:00 +10°C° 0 mm 2 m/S 746 mmHg 62%
16:00 +10°C° 0 mm 2 m/S 745 mmHg 65%
17:00 +9°C° 1 mm 2 m/S 745 mmHg 73%
18:00 +8°C° 1 mm 2 m/S 745 mmHg 80%
19:00 +8°C° 1 mm 3 m/S 744 mmHg 88%
20:00 +8°C° 1.9 mm 3 m/S 744 mmHg 90%
21:00 +9°C° 1.9 mm 3 m/S 744 mmHg 92%
22:00 +8°C° 1.9 mm 4 m/S 744 mmHg 94%
23:00 +8°C° 1.9 mm 4 m/S 744 mmHg 95%

31 Oktober, Samstag

Zeit Temperatur Niederschläge Wind Luftdruck Luftfeuchtigkeit
00:00 +8°C° 1.9 mm 4 m/S 744 mmHg 95%
01:00 +8°C° 1.9 mm 4 m/S 744 mmHg 95%
02:00 +8°C° 0.1 mm 4 m/S 744 mmHg 94%
03:00 +7°C° 0.1 mm 4 m/S 745 mmHg 93%
04:00 +7°C° 0.1 mm 3 m/S 745 mmHg 91%
05:00 +7°C° 0 mm 3 m/S 746 mmHg 90%
06:00 +7°C° 0 mm 3 m/S 747 mmHg 89%
07:00 +7°C° 0 mm 2 m/S 747 mmHg 88%
08:00 +8°C° 0 mm 2 m/S 748 mmHg 83%
09:00 +8°C° 0 mm 2 m/S 749 mmHg 78%
10:00 +9°C° 0 mm 2 m/S 749 mmHg 74%
11:00 +9°C° 0 mm 2 m/S 749 mmHg 70%
12:00 +10°C° 0 mm 2 m/S 750 mmHg 67%
13:00 +12°C° 0 mm 2 m/S 750 mmHg 64%
14:00 +10°C° 0 mm 2 m/S 750 mmHg 69%
15:00 +9°C° 0 mm 2 m/S 750 mmHg 73%
16:00 +9°C° 0 mm 1 m/S 750 mmHg 77%
17:00 +9°C° 0 mm 1 m/S 751 mmHg 80%
18:00 +8°C° 0 mm 1 m/S 751 mmHg 84%
19:00 +7°C° 0 mm 1 m/S 751 mmHg 87%
20:00 +7°C° 0 mm 1 m/S 751 mmHg 88%
21:00 +7°C° 0 mm 1 m/S 751 mmHg 89%
22:00 +6°C° 0 mm 1 m/S 751 mmHg 90%
23:00 +6°C° 0 mm 1 m/S 751 mmHg 91%

1 November, Sonntag

Zeit Temperatur Niederschläge Wind Luftdruck Luftfeuchtigkeit
00:00 +6°C° 0 mm 1 m/S 751 mmHg 91%
01:00 +6°C° 0 mm 1 m/S 752 mmHg 92%
02:00 +5°C° 0 mm 1 m/S 751 mmHg 92%
03:00 +5°C° 0 mm 1 m/S 751 mmHg 92%
04:00 +5°C° 0 mm 1 m/S 751 mmHg 92%
05:00 +5°C° 0 mm 1 m/S 751 mmHg 92%
06:00 +4°C° 0 mm 2 m/S 751 mmHg 92%
07:00 +4°C° 0 mm 2 m/S 751 mmHg 92%
08:00 +5°C° 0 mm 2 m/S 751 mmHg 86%
09:00 +7°C° 0 mm 2 m/S 751 mmHg 80%
10:00 +9°C° 0 mm 3 m/S 751 mmHg 73%
11:00 +10°C° 0 mm 3 m/S 750 mmHg 70%
12:00 +11°C° 0 mm 3 m/S 750 mmHg 67%
13:00 +13°C° 0 mm 2 m/S 750 mmHg 63%
14:00 +12°C° 0 mm 2 m/S 750 mmHg 68%
15:00 +10°C° 0 mm 2 m/S 749 mmHg 73%
16:00 +9°C° 0 mm 2 m/S 749 mmHg 77%
17:00 +8°C° 0 mm 2 m/S 749 mmHg 79%
18:00 +7°C° 0 mm 2 m/S 749 mmHg 80%
19:00 +6°C° 0 mm 2 m/S 749 mmHg 82%
20:00 +6°C° 0 mm 2 m/S 749 mmHg 81%
21:00 +6°C° 0 mm 2 m/S 749 mmHg 80%
22:00 +5°C° 0 mm 2 m/S 749 mmHg 79%
23:00 +5°C° 0 mm 2 m/S 749 mmHg 79%

2 November, Montag

Zeit Temperatur Niederschläge Wind Luftdruck Luftfeuchtigkeit
00:00 +5°C° 0 mm 2 m/S 749 mmHg 78%
01:00 +5°C° 0 mm 2 m/S 749 mmHg 77%
02:00 +5°C° 0 mm 2 m/S 749 mmHg 76%
03:00 +5°C° 0 mm 2 m/S 749 mmHg 75%
04:00 +4°C° 0 mm 2 m/S 749 mmHg 74%
05:00 +4°C° 0 mm 2 m/S 749 mmHg 73%
06:00 +4°C° 0 mm 2 m/S 749 mmHg 73%
07:00 +4°C° 0 mm 2 m/S 749 mmHg 72%
08:00 +6°C° 0 mm 2 m/S 749 mmHg 66%
09:00 +8°C° 0 mm 2 m/S 749 mmHg 61%
10:00 +10°C° 0 mm 2 m/S 749 mmHg 55%
11:00 +12°C° 0 mm 2 m/S 749 mmHg 54%
12:00 +13°C° 0 mm 2 m/S 749 mmHg 52%
13:00 +14°C° 0 mm 2 m/S 749 mmHg 51%
14:00 +13°C° 0 mm 2 m/S 749 mmHg 58%
15:00 +12°C° 0 mm 2 m/S 749 mmHg 65%
16:00 +10°C° 0 mm 2 m/S 748 mmHg 72%
17:00 +9°C° 0 mm 2 m/S 749 mmHg 74%
18:00 +9°C° 0 mm 2 m/S 749 mmHg 76%
19:00 +8°C° 0 mm 2 m/S 749 mmHg 78%
20:00 +8°C° 0 mm 2 m/S 749 mmHg 78%
21:00 +8°C° 0 mm 2 m/S 749 mmHg 79%
22:00 +7°C° 0 mm 2 m/S 749 mmHg 79%
23:00 +7°C° 0 mm 2 m/S 749 mmHg 80%
Mehr zeigen

Wir brauchen deine Erlaubnis

Meteoprog und unser Service Anbieter werden persönliche Daten aufbewahren, so wie Cookies, Geräte Bezeichnung oder ähnliche Technologien von deinem Gerät und Prozess, so wie Persönliche Daten Inhalte und Werbungen, genauso wie social Media und den Verkehr zu analysieren.

  • Aufbewahrung und/oder Zugang zu deiner Geräte Informationen.

    Cookies, Geräte Bezeichnung oder andere Informationen, können aufbewahrt oder Zugang zu deinem Gerät erhalten, für den Grund, der oben angegeben wird.

  • Personalisierte Werbung und Inhalte, Messungen, Einblick in das Publikum und Produkt Entwicklung.

    Werbungen und Inhalte können personalisiert werden, basierend auf ein Profil. Mehr Daten können besser personalisierte Werbungen und Inhalte hinzufügen. Werbung und Inhalte können gezeigt und gemessen werden. Einblicke über das Publikum, welche die Werbung gesehen haben und den Inhalt, können abgeleitet werden. So wie Daten können genutzt werden, um es zu verbessern oder die Benutzer Erfahrung zu verbessern das System und die Software.

Wenn du “Ich stimme zu” klickst, erlaubst du uns, die Cookies zu benutzen die Geräte Bezeichnung, den Web oder ähnliche Technologien zu benutzen. Deine Settings, können in deinem Gerät bei deinem Browser geändert werden.

Für den bestimmten Zweck, berechtigten Interessen beruhen darauf, mehr als auf den Inhalt. Du kannst mehr darüber in unseren Privaten und Cookie Politik lesen.